GEFSSGP_850_meantemp_252.txt.gz
Temperature
16 16 17 17 20 21 21 20 20 20 20 18 18 19 20 19 19 18 14 14 14 14 14 14 14 14 14 14 14 14 14 15 15 15 15 15 15 15 15 15 15 15 15 15 15 15 15 15 15
16 16 17 18 21 21 21 20 19 19 18 17 17 17 18 17 15 14 14 14 14 14 14 14 14 14 14 14 14 14 14 14 14 14 14 14 14 14 14 14 15 14 14 14 14 14 15 15 15
16 16 17 20 20 21 20 19 19 18 16 16 17 16 16 15 13 13 13 14 14 14 14 14 14 14 14 14 14 14 14 14 14 14 14 14 14 14 14 14 14 14 14 14 14 14 14 15 15
16 16 18 20 19 19 19 19 18 18 17 16 17 16 14 12 12 12 13 13 13 13 13 13 13 14 14 14 14 14 14 14 14 14 14 14 14 14 14 14 14 14 14 14 14 14 14 14 15
16 17 19 19 18 18 18 17 16 18 17 16 16 16 14 12 12 12 13 13 13 13 13 13 13 13 13 13 13 13 13 13 13 13 14 14 14 14 14 14 14 14 14 14 14 14 14 14 14
16 18 19 19 18 18 17 15 16 17 16 15 15 16 13 11 12 12 12 13 13 13 13 13 13 13 13 13 13 13 13 13 13 13 13 13 13 13 14 13 13 14 14 14 14 14 14 14 14
17 18 18 18 18 17 16 15 15 16 15 14 13 15 13 11 11 12 12 12 12 12 12 12 12 12 12 12 12 12 12 12 13 13 13 13 13 13 13 13 13 13 13 13 13 14 14 14 14
15 17 17 17 17 16 15 14 13 14 14 11 11 13 12 9 11 11 11 12 12 12 12 12 12 12 12 12 12 12 12 12 12 12 13 13 13 13 13 13 13 13 13 13 13 13 13 13 13
14 17 17 16 16 15 14 14 12 11 11 10 9 9 9 9 10 11 11 11 11 12 11 12 11 11 11 11 11 11 11 12 12 12 12 12 12 12 12 12 12 12 12 13 13 13 13 13 13
14 16 15 14 14 14 12 12 12 12 11 10 9 8 8 9 9 10 10 10 10 11 11 11 11 11 11 11 11 11 11 11 11 11 12 12 12 12 12 12 12 12 12 12 12 12 12 12 12
13 14 13 12 12 12 11 10 10 11 11 10 9 8 8 8 9 9 9 9 9 10 10 10 10 10 10 11 11 11 11 11 11 11 11 11 11 11 11 12 11 11 12 12 12 12 12 12 12
12 11 11 11 10 10 10 10 9 9 9 8 7 7 7 7 7 8 8 8 9 9 9 10 10 10 10 10 10 10 10 10 10 11 11 11 11 11 11 11 11 11 11 11 11 11 11 11 11
12 11 9 9 8 8 8 8 8 7 7 7 7 7 6 6 6 7 7 7 8 9 9 9 9 9 10 10 10 10 10 10 10 10 10 11 10 10 10 10 11 11 11 11 11 11 11 11 11
11 10 9 9 9 8 8 8 8 7 6 6 6 5 5 5 5 6 6 7 7 8 8 8 8 9 9 9 9 9 10 10 10 10 10 10 10 10 10 10 10 10 10 10 10 10 11 11 11
9 10 10 9 9 8 9 9 7 6 5 5 5 4 4 4 4 5 5 6 6 7 7 8 8 8 8 8 9 9 9 9 9 9 9 9 10 10 10 10 10 10 10 10 10 10 10 10 10
11 12 12 10 9 8 10 9 7 5 5 5 4 4 3 3 3 4 5 5 6 6 7 7 7 7 8 8 8 8 8 8 9 9 9 9 9 9 9 9 9 9 9 9 10 10 10 10 10
12 12 12 10 8 8 9 8 6 4 4 4 4 3 3 3 3 3 4 4 5 5 6 6 7 7 7 7 7 7 7 8 8 8 8 8 8 8 8 8 9 9 9 9 9 9 9 9 10
11 11 10 10 8 8 8 7 6 4 4 4 3 3 3 2 2 2 3 4 4 5 5 6 6 6 6 6 6 7 7 7 7 7 7 7 8 8 8 8 8 8 8 8 9 9 9 9 9
10 10 10 9 7 7 7 6 6 5 4 3 3 3 2 2 2 2 2 3 4 4 5 5 5 5 5 5 6 6 6 7 7 7 7 7 7 7 7 7 7 8 8 8 8 8 8 8 9
9 9 9 8 7 6 6 6 5 4 3 2 2 2 1 1 1 1 2 2 3 3 4 4 4 5 5 5 5 5 5 6 6 6 6 6 6 6 7 7 7 7 7 7 7 8 8 8 8
8 8 8 7 6 6 6 6 5 4 3 2 1 1 0 0 0 0 1 1 2 2 3 3 3 4 4 4 4 4 4 5 5 5 5 5 6 6 6 6 6 6 6 7 7 7 7 7 8
8 7 6 6 7 8 7 8 7 5 3 2 1 1 0 -0 -0 -0 -0 0 1 1 2 2 2 3 3 3 3 3 3 4 4 4 4 5 5 5 5 5 5 6 6 6 6 6 6 7 7
7 6 6 6 6 7 6 7 8 4 3 3 1 0 -1 -1 -1 -1 -1 -0 -0 0 1 1 2 2 2 2 3 3 3 3 3 3 4 4 4 4 4 5 5 5 5 5 5 6 6 6 6
5 6 6 6 6 6 6 7 7 5 3 3 1 -0 -1 -1 -1 -1 -1 -1 -0 0 0 1 1 1 2 2 2 2 2 2 2 2 3 3 3 4 4 4 4 4 4 5 5 5 5 5 6
6 7 7 7 7 8 5 6 6 3 2 2 1 -1 -1 -1 -2 -2 -2 -2 -1 -1 -0 -0 0 1 1 1 1 1 1 1 1 2 2 2 3 3 3 3 3 4 4 4 4 4 5 5 5
5 6 7 7 8 8 5 5 5 2 1 -0 -1 -1 -2 -2 -2 -2 -2 -2 -2 -2 -1 -1 -1 -0 -0 0 1 1 1 1 1 1 1 1 2 2 2 3 3 3 3 3 4 4 4 4 5
5 5 4 5 5 5 6 5 3 1 1 -0 -1 -1 -2 -2 -2 -3 -3 -3 -3 -2 -2 -2 -1 -1 -1 -1 -0 -0 -0 0 0 0 1 1 1 1 2 2 2 2 3 3 3 3 4 4 4
4 4 4 4 5 6 6 6 5 2 1 0 -1 -1 -2 -3 -3 -3 -3 -3 -3 -3 -3 -2 -2 -2 -2 -1 -1 -1 -1 -1 -0 -0 0 0 1 1 1 1 2 2 2 2 2 3 3 3 3
3 3 3 4 4 4 5 6 3 2 1 -0 -1 -2 -3 -3 -3 -4 -4 -3 -3 -3 -3 -3 -2 -2 -2 -2 -2 -2 -1 -1 -1 -1 -0 -0 0 0 1 1 1 1 1 2 2 2 2 2 3
2 3 3 3 3 3 4 4 1 0 -1 -1 -2 -2 -3 -3 -4 -4 -4 -4 -4 -3 -3 -3 -3 -3 -3 -2 -2 -2 -2 -2 -2 -1 -1 -1 -0 0 0 0 0 1 1 1 1 1 2 2 2

GEFSSGP_850_meantemp_258.txt.gz
Temperature
17 17 17 18 18 18 20 21 22 21 21 20 20 20 19 17 16 15 13 13 14 14 14 14 14 14 14 14 14 15 14 14 14 14 14 14 14 15 14 14 14 14 14 15 15 15 15 15 15
17 17 17 18 18 19 20 20 20 20 20 19 19 19 18 15 14 13 13 13 13 14 14 14 14 14 14 14 14 14 14 14 14 14 14 14 14 14 14 14 14 14 14 14 15 15 15 15 15
17 17 18 18 19 19 20 20 19 19 19 19 18 17 15 14 12 12 12 13 13 13 13 14 14 14 14 14 14 14 14 14 14 14 14 14 14 14 14 14 14 14 14 14 14 15 15 15 15
16 17 18 18 18 19 19 19 19 19 19 18 17 15 13 12 11 11 12 12 12 13 13 13 13 14 13 13 13 14 14 14 14 14 14 14 14 14 14 14 14 14 14 14 14 14 14 15 15
16 18 18 18 18 19 19 19 19 18 18 17 16 15 12 11 11 12 12 12 12 12 12 13 13 13 13 13 13 13 13 13 14 14 14 14 14 14 14 14 14 14 14 14 14 14 14 14 14
17 18 17 18 18 19 18 18 18 17 17 16 15 15 11 11 11 11 11 11 11 12 12 12 13 13 13 13 13 13 13 13 13 13 13 13 13 13 13 13 14 14 14 14 14 14 14 14 14
17 17 17 18 18 18 18 17 17 16 15 14 14 14 11 10 10 10 11 11 11 11 12 12 12 12 12 12 12 12 13 13 13 13 13 13 13 13 13 13 13 13 13 13 14 14 13 13 14
16 16 17 18 17 17 17 16 15 15 13 12 12 12 10 9 10 10 10 11 11 11 11 11 12 12 12 12 12 12 12 12 12 12 12 12 12 12 12 12 13 13 13 13 13 13 13 13 13
16 15 15 16 17 15 15 15 14 13 12 11 10 10 9 9 9 10 10 10 11 11 11 11 11 11 11 11 11 11 11 11 11 11 11 12 12 12 12 12 12 12 13 13 13 13 13 13 13
15 14 14 15 15 14 14 13 13 12 12 11 10 9 9 9 9 9 9 9 10 10 10 10 10 10 10 10 10 10 10 10 11 11 11 11 11 11 11 12 12 12 12 12 12 12 12 12 12
15 14 14 14 14 13 13 12 12 12 10 10 9 8 8 8 8 8 8 8 8 9 9 9 9 10 10 10 10 10 10 10 10 10 10 11 11 11 11 11 11 11 11 12 12 12 12 12 12
14 13 13 13 12 12 12 11 10 9 9 9 8 8 8 7 7 7 7 7 7 8 8 9 9 9 9 9 10 9 10 10 10 10 10 10 10 10 10 11 11 11 11 11 11 11 11 11 11
13 12 12 11 11 11 10 9 9 8 8 8 8 7 7 7 6 6 6 6 7 7 8 8 8 9 9 9 9 9 9 9 9 9 10 10 10 10 10 10 10 10 10 11 11 10 11 11 11
13 12 11 11 11 10 9 9 8 8 8 7 7 6 6 6 5 6 6 6 6 6 7 7 8 8 8 8 8 8 8 8 9 9 9 9 9 9 9 9 9 10 10 10 10 10 10 10 10
12 11 11 11 11 10 10 8 8 8 7 7 6 6 5 5 5 5 5 5 5 6 6 7 7 7 8 8 8 8 8 8 8 8 9 9 9 9 9 9 9 9 9 9 10 10 10 10 10
12 12 11 11 11 11 9 8 8 7 7 7 6 5 5 5 4 4 4 4 5 5 6 6 6 7 7 7 7 7 7 7 8 8 8 8 8 8 8 8 8 9 9 9 9 9 9 10 10
12 12 12 11 11 11 9 8 7 7 7 7 6 5 5 4 4 4 4 4 4 5 5 5 6 6 6 6 7 6 6 7 7 7 7 8 8 8 8 8 8 8 8 8 8 8 9 9 9
11 11 12 11 10 10 8 7 7 7 7 6 5 5 4 4 3 3 3 3 3 4 4 4 5 5 5 6 6 6 6 6 6 6 7 7 7 7 7 7 7 7 7 8 8 8 8 8 8
11 11 10 10 9 9 8 7 7 7 6 5 5 4 4 3 3 2 2 3 3 3 4 4 4 4 5 5 5 5 5 5 5 6 6 6 6 6 6 6 7 7 7 7 7 7 7 8 8
10 10 9 9 9 8 7 7 7 6 5 5 4 4 3 2 2 2 2 2 2 2 3 3 3 3 3 3 4 4 4 4 5 5 5 5 5 5 6 6 6 6 6 6 6 6 7 7 7
9 9 8 8 8 8 7 6 6 6 5 4 4 3 2 2 1 1 1 1 1 2 2 2 2 2 3 3 3 3 3 4 4 4 4 4 5 5 5 5 5 5 5 5 6 6 6 6 6
8 8 8 7 6 6 7 5 6 6 4 4 3 2 2 1 1 1 0 0 1 1 1 1 2 2 2 2 2 2 2 3 3 3 3 3 4 4 4 4 4 4 4 5 5 5 5 5 6
7 7 7 7 6 6 7 6 5 5 4 3 2 2 1 1 0 0 -0 -0 -0 0 0 1 1 1 1 1 1 2 2 2 2 2 2 3 3 3 3 3 3 4 4 4 4 4 4 5 5
7 7 7 7 6 5 7 6 5 4 4 3 2 2 1 1 0 -0 -1 -1 -1 -0 -0 0 0 0 0 0 1 1 1 1 1 2 2 2 2 3 3 3 3 3 3 3 4 4 4 4 4
7 6 5 5 5 5 7 6 4 4 3 3 2 1 1 0 -0 -1 -1 -1 -1 -1 -1 -1 -1 -1 -0 -0 -0 0 0 0 1 1 1 1 1 2 2 2 2 2 2 3 3 3 3 4 4
6 6 5 5 5 6 6 5 3 3 3 2 2 1 1 0 -0 -1 -1 -2 -2 -2 -2 -2 -1 -1 -1 -1 -1 -1 -0 -0 -0 -0 -0 0 1 1 1 1 1 2 2 2 2 3 3 3 3
6 5 5 4 4 4 5 4 2 2 2 2 1 1 0 -0 -1 -1 -2 -2 -2 -2 -2 -2 -2 -2 -2 -1 -1 -1 -1 -1 -1 -1 -1 -0 -0 0 0 1 1 1 1 2 2 2 2 2 3
5 5 4 3 3 4 5 5 3 1 1 1 0 0 -0 -1 -1 -1 -2 -2 -2 -3 -3 -2 -2 -2 -2 -2 -2 -2 -2 -2 -2 -1 -1 -1 -1 -0 -0 0 0 1 1 1 1 1 1 2 2
4 4 4 4 4 3 3 3 2 2 1 0 0 0 -0 -1 -1 -2 -2 -3 -3 -3 -3 -3 -3 -3 -2 -2 -2 -2 -2 -2 -2 -2 -2 -2 -1 -1 -1 -1 -0 -0 0 0 0 1 1 1 1
4 4 3 2 2 3 2 2 2 1 1 1 0 -0 -1 -1 -2 -2 -3 -3 -3 -3 -3 -3 -3 -3 -3 -3 -3 -3 -3 -3 -3 -2 -2 -2 -2 -2 -1 -1 -1 -1 -1 -0 -0 0 0 0 1

GEFSSGP_850_meantemp_264.txt.gz
Temperature
17 17 17 18 14 12 14 15 15 15 15 15 15 14 13 12 13 13 11 12 12 13 13 13 13 13 14 14 14 14 14 14 14 14 14 15 14 14 15 15 15 15 15 15 15 15 15 15 15
17 17 17 17 12 13 14 14 14 15 15 15 14 13 12 11 11 11 11 11 12 13 13 13 13 13 13 14 14 14 14 14 14 14 14 14 14 14 14 14 14 14 14 15 15 15 15 15 14
16 17 17 12 12 13 14 14 14 14 15 15 13 12 11 10 10 10 11 11 12 12 12 13 13 13 13 13 13 14 14 14 14 14 14 14 14 14 14 14 14 14 14 14 14 15 14 14 14
17 17 15 11 13 13 13 13 14 14 14 14 12 10 10 9 10 10 11 11 12 12 12 12 12 12 13 13 13 13 13 13 13 13 14 14 14 14 14 14 14 14 14 14 14 14 14 14 14
17 16 12 11 13 13 12 13 14 13 12 12 12 10 9 9 10 10 11 11 11 12 12 12 12 12 12 13 13 13 13 13 13 13 13 13 13 13 13 13 14 14 14 14 14 14 14 14 14
16 13 11 11 13 13 13 13 13 11 11 11 11 9 8 9 10 10 10 11 11 11 11 12 12 12 12 12 12 12 12 12 13 13 13 13 13 13 13 13 13 13 13 13 13 13 13 13 13
14 10 11 12 12 13 12 12 11 10 10 10 10 9 8 9 9 9 10 10 11 11 11 11 11 11 12 12 12 12 12 12 12 12 12 12 12 13 13 13 13 13 13 13 13 13 13 13 13
15 10 12 12 12 12 12 11 10 10 9 9 10 8 7 8 8 9 9 10 10 10 11 11 11 11 11 11 11 11 11 12 12 12 12 12 12 12 12 12 12 12 13 13 12 12 12 13 13
14 10 10 11 12 11 11 10 10 9 9 8 8 8 8 8 8 9 9 9 10 10 10 10 10 10 11 11 11 11 11 11 11 11 11 11 11 12 12 12 12 12 12 12 12 12 12 12 12
12 9 11 11 11 10 10 9 9 9 8 7 7 7 7 8 8 8 9 9 9 9 9 9 9 10 10 10 10 10 10 10 10 10 10 11 11 11 11 11 11 11 12 12 12 12 12 12 12
11 9 10 10 10 10 9 8 9 8 7 7 7 6 7 7 7 7 8 8 8 8 8 8 9 9 9 9 9 10 10 10 10 10 10 10 10 11 11 11 11 11 11 11 11 11 11 11 11
10 9 10 10 10 10 9 8 7 7 7 7 7 7 7 7 7 7 7 7 7 7 7 8 8 8 8 9 9 9 9 9 9 9 9 10 10 10 10 10 10 10 10 10 11 11 11 11 11
9 9 9 9 9 8 8 7 7 6 7 6 6 6 6 6 6 6 6 6 6 7 7 7 7 7 8 8 8 8 8 9 9 9 9 9 9 10 10 10 10 10 10 10 10 10 10 10 10
9 9 9 9 9 8 7 6 6 6 6 6 6 5 5 5 5 5 6 6 6 6 6 6 7 7 7 7 8 8 8 8 8 8 8 8 9 9 9 9 9 9 9 10 10 10 10 10 10
9 8 8 8 8 7 7 6 5 6 6 5 5 5 4 4 4 5 5 5 5 5 6 6 6 6 6 7 7 7 7 7 7 8 8 8 8 8 8 9 9 9 9 9 9 9 9 9 9
9 8 8 8 8 7 7 6 5 6 5 4 4 4 4 4 4 4 4 4 5 5 5 5 6 6 6 6 6 6 6 7 7 7 7 7 7 7 8 8 8 8 8 8 8 8 9 9 9
7 7 7 7 7 7 6 6 5 5 5 4 3 3 3 3 3 3 3 4 4 4 5 5 5 5 5 5 5 6 6 6 6 6 6 7 7 7 7 7 7 7 7 7 8 8 8 8 8
7 7 7 7 7 6 5 5 4 5 4 3 3 2 2 2 2 3 3 3 3 4 4 4 4 4 4 5 5 5 5 5 5 6 6 6 6 6 6 6 6 7 7 7 7 7 7 7 7
8 7 7 7 6 6 5 4 4 4 3 2 2 2 2 2 2 2 2 3 3 3 3 3 4 4 4 4 4 4 4 4 5 5 5 5 5 5 5 5 6 6 6 6 6 6 6 6 6
7 7 6 6 6 6 4 4 3 3 2 2 2 1 1 1 1 1 2 2 2 2 3 3 3 3 3 3 3 3 3 3 3 4 4 4 4 4 4 5 5 5 5 5 5 5 5 6 6
6 6 6 5 5 5 4 3 3 2 2 2 1 1 1 1 1 1 1 1 2 2 2 2 2 2 2 2 2 3 3 3 3 3 3 3 3 4 4 4 4 4 4 4 5 5 5 5 5
6 6 6 5 4 3 4 3 3 2 1 1 1 1 1 1 1 1 1 1 1 1 1 1 1 1 1 2 2 2 2 2 2 2 2 2 2 3 3 3 3 3 4 4 4 4 4 4 4
5 5 5 5 4 3 3 3 2 1 1 0 0 1 1 0 0 0 0 0 0 0 0 0 1 1 1 1 1 1 1 1 1 1 1 2 2 2 2 2 2 3 3 3 3 3 3 3 3
5 4 4 3 2 3 3 2 2 1 1 1 0 0 0 0 0 0 0 -0 -0 -0 -0 -0 0 0 0 0 0 0 0 0 0 0 0 1 1 1 1 1 1 2 2 2 2 3 3 3 3
4 4 4 3 3 3 3 2 1 0 0 0 0 0 0 0 -0 -0 -0 -0 -0 -1 -1 -1 -1 -0 -0 -1 -0 -1 -1 -1 -1 -1 -0 -0 0 0 0 0 1 1 1 1 2 2 2 2 2
4 4 4 4 3 3 2 2 1 -0 -0 0 0 0 -0 -0 -0 -0 -1 -1 -1 -1 -1 -1 -1 -1 -1 -1 -1 -1 -1 -1 -1 -1 -1 -1 -1 -1 -0 -0 -0 0 0 1 1 1 1 2 2
4 3 3 2 1 1 1 0 0 -0 -1 -1 -0 -0 -0 -1 -1 -1 -1 -1 -1 -2 -2 -2 -2 -2 -2 -2 -2 -2 -2 -2 -2 -2 -2 -2 -2 -1 -1 -1 -1 -1 -0 0 0 1 1 1 1
3 2 1 1 2 2 2 1 1 -0 -1 -1 -1 -1 -1 -1 -1 -1 -1 -2 -2 -2 -2 -2 -3 -3 -3 -3 -2 -2 -2 -2 -2 -2 -2 -2 -2 -2 -2 -1 -1 -1 -1 -0 -0 0 0 0 1
2 2 1 0 0 1 1 1 0 -1 -1 -2 -2 -1 -1 -1 -1 -2 -2 -2 -2 -2 -3 -3 -3 -3 -3 -3 -3 -3 -3 -3 -3 -3 -3 -3 -3 -3 -2 -2 -2 -2 -1 -1 -1 -1 -0 -0 -0
2 1 0 1 0 -1 -0 0 -0 -2 -1 -1 -1 -1 -1 -2 -2 -2 -2 -2 -3 -3 -3 -3 -4 -4 -4 -4 -4 -4 -3 -4 -3 -3 -3 -3 -3 -3 -3 -3 -2 -2 -2 -2 -2 -1 -1 -1 -1

GEFSSGP_850_meantemp_270.txt.gz
Temperature
16 17 17 18 14 11 12 13 12 12 12 12 12 11 10 10 11 11 11 11 11 12 12 12 12 12 12 13 13 13 13 13 14 14 14 14 14 14 14 14 14 14 14 14 15 15 15 15 14
16 17 17 17 12 12 13 12 12 11 12 12 11 11 10 9 9 10 10 11 11 11 12 12 12 12 12 12 13 13 13 13 13 13 14 14 14 14 14 14 14 14 14 14 14 14 14 14 14
16 17 17 10 11 12 13 12 11 11 11 11 10 9 9 8 9 9 10 10 11 11 12 12 12 12 12 12 12 13 13 13 13 13 13 13 13 13 14 14 14 14 14 14 14 14 14 14 14
17 17 14 10 11 11 11 11 10 10 11 10 9 8 8 8 8 9 10 10 11 11 11 11 11 12 12 12 12 12 12 13 13 13 13 13 13 13 13 13 13 13 13 14 14 13 14 14 14
16 16 11 10 11 11 10 10 10 10 9 9 9 8 8 8 8 9 9 10 10 11 11 11 11 11 11 12 12 12 12 12 12 12 13 13 13 13 13 13 13 13 13 13 13 13 13 13 13
16 12 10 10 11 10 9 10 10 9 9 9 8 8 7 8 8 9 9 10 10 10 11 11 11 11 11 11 11 11 12 12 12 12 12 12 12 12 12 13 13 13 13 13 13 13 13 13 13
13 9 10 10 10 10 10 9 9 8 8 8 8 7 7 8 8 8 9 9 10 10 10 10 10 11 11 11 11 11 11 11 11 12 12 12 12 12 12 12 12 12 12 12 12 12 13 13 13
14 9 10 9 10 10 9 9 8 8 7 8 8 7 6 7 7 8 8 9 9 9 10 10 10 10 10 10 10 10 11 11 11 11 11 11 11 11 12 12 12 12 12 12 12 12 12 12 12
13 9 9 10 10 9 9 8 8 8 7 7 7 6 6 7 7 8 8 8 9 9 9 9 9 9 10 10 10 10 10 10 10 11 11 11 11 11 11 11 11 11 11 11 11 11 12 12 12
11 8 9 9 9 8 8 8 7 7 6 6 6 6 6 7 7 7 8 8 8 8 8 8 9 9 9 9 9 9 9 10 10 10 10 10 10 10 10 11 11 11 11 11 11 11 11 11 12
9 8 8 8 8 8 7 7 7 7 5 5 5 6 6 7 7 7 7 7 7 7 8 8 8 8 8 8 9 9 9 9 9 9 9 10 10 10 10 10 10 10 11 10 10 10 11 11 11
7 7 8 8 8 8 7 6 6 5 5 6 6 6 6 6 6 6 6 6 6 7 7 7 7 7 8 8 8 8 8 8 9 9 9 9 9 9 9 10 10 10 10 10 10 10 10 10 10
7 7 7 7 7 7 6 5 5 4 5 5 5 5 5 6 6 6 6 6 6 6 6 6 7 7 7 7 7 7 7 8 8 8 8 8 8 9 9 9 9 9 9 9 9 10 10 10 10
7 7 7 7 7 6 5 4 4 4 5 5 5 5 4 5 5 5 5 5 5 5 6 6 6 6 6 7 7 7 7 7 7 7 7 7 8 8 8 8 8 9 9 9 9 9 9 9 9
7 6 6 6 6 6 6 5 3 4 4 4 4 4 4 4 4 4 4 5 5 5 5 5 5 5 6 6 6 6 6 6 6 7 7 7 7 7 7 7 8 8 8 8 8 8 8 9 9
7 7 7 6 6 6 6 6 4 4 3 3 3 3 3 3 3 3 4 4 4 4 4 5 5 5 5 5 5 5 5 6 6 6 6 6 6 6 7 7 7 7 7 7 8 8 8 8 8
6 7 7 6 5 5 5 4 3 3 3 2 2 2 2 3 3 3 3 3 4 4 4 4 4 4 5 5 4 5 5 5 5 5 5 5 5 6 6 6 6 6 6 7 7 7 7 7 7
7 7 6 6 5 4 4 3 2 3 2 1 1 2 2 2 2 2 3 3 3 3 3 3 4 4 4 4 4 4 4 4 4 4 4 4 5 5 5 5 5 5 6 6 6 6 6 6 6
7 6 6 5 5 4 3 3 2 2 1 1 1 1 1 1 2 2 2 2 2 2 3 3 3 3 3 3 3 4 4 4 4 4 4 4 4 4 4 4 4 5 5 5 5 5 5 5 6
6 6 5 5 4 4 3 2 2 1 1 0 0 1 1 1 1 1 2 2 2 2 2 2 2 2 2 2 2 2 3 3 3 3 3 3 3 3 3 3 4 4 4 4 4 4 4 4 4
6 5 5 5 4 3 3 3 2 1 1 0 0 1 1 1 1 1 1 1 1 1 1 1 1 1 1 2 2 2 2 2 2 2 2 2 2 2 2 2 3 3 3 3 3 4 4 4 4
5 5 5 4 4 3 3 3 3 1 -0 -0 -0 0 0 1 1 1 1 1 1 1 1 1 1 1 1 1 1 1 1 1 1 1 1 1 1 1 1 2 2 2 2 2 2 3 3 3 3
4 4 3 3 3 2 2 2 2 1 1 -0 -0 -0 1 1 1 1 1 1 0 0 0 0 0 0 0 0 0 0 0 0 0 0 0 1 1 1 1 1 1 1 1 1 1 2 2 2 2
3 3 3 2 2 3 2 2 2 0 0 0 -0 0 1 1 0 0 0 0 -0 -0 -0 -0 -1 -0 -0 -1 -1 -1 -1 -1 -0 -0 -0 -0 -0 -0 -0 -0 -0 0 0 0 1 1 1 1 1
3 3 4 4 3 3 2 2 2 0 -0 -0 -1 -0 0 0 0 -0 -0 -0 -0 -1 -1 -1 -1 -1 -1 -1 -1 -1 -1 -1 -1 -1 -1 -1 -1 -1 -1 -1 -1 -1 -1 -0 -0 0 0 1 1
3 4 4 4 3 2 1 1 1 -0 -0 -0 -0 -1 -0 -0 -0 -0 -0 -1 -1 -1 -1 -1 -2 -2 -2 -2 -2 -2 -2 -2 -2 -2 -2 -2 -2 -2 -2 -2 -2 -2 -1 -1 -1 -1 -0 -0 0
3 2 2 1 0 0 1 -0 -1 -1 -1 -1 -1 -1 -1 -1 -1 -1 -1 -1 -1 -1 -2 -2 -2 -2 -2 -2 -2 -3 -3 -3 -3 -3 -3 -3 -2 -2 -2 -2 -2 -2 -2 -2 -1 -1 -1 -1 -0
2 1 0 1 2 2 1 0 1 -0 -1 -1 -2 -2 -1 -1 -1 -1 -1 -2 -2 -2 -2 -2 -3 -3 -3 -3 -3 -3 -3 -3 -3 -3 -3 -3 -3 -3 -3 -3 -3 -3 -2 -2 -2 -2 -2 -1 -1
1 1 1 -0 0 1 1 2 0 -1 -1 -2 -2 -1 -1 -1 -1 -2 -2 -2 -2 -2 -3 -3 -3 -3 -3 -4 -4 -4 -4 -4 -4 -4 -4 -4 -4 -4 -3 -3 -3 -3 -3 -3 -3 -3 -2 -2 -2
1 1 -0 1 0 -1 -1 1 -1 -2 -2 -2 -2 -2 -2 -2 -2 -2 -3 -3 -3 -3 -3 -3 -4 -4 -4 -4 -4 -4 -4 -4 -4 -4 -4 -4 -4 -4 -4 -4 -4 -4 -3 -3 -3 -3 -3 -3 -3